This is the latest recevied weather packets stored in our database for station/object N1YZ. If no packets are shown the sender has not sent any weather packets the latest 10 day(s).
| Time | Temp. | Humidity | Pressure | Rain* | Wind** | Luminosity | Snow |
|---|---|---|---|---|---|---|---|
| 1777783451 | 10.56° C | 81% | 1037.7 hPa | 0 mm | - | 0 W/m² | - |
| 1777783148 | 10.56° C | 81% | 1037.6 hPa | 0 mm | - | 0 W/m² | - |
| 1777782845 | 10.56° C | 81% | 1037.6 hPa | 0 mm | - | 0 W/m² | - |
| 1777782541 | 11.11° C | 82% | 1037.6 hPa | 0 mm | - | 0 W/m² | - |
| 1777782238 | 11.11° C | 81% | 1037.4 hPa | 0 mm | - | 0 W/m² | - |
| 1777781934 | 11.11° C | 80% | 1037.1 hPa | 0 mm | - | 0 W/m² | - |
| 1777781631 | 11.11° C | 80% | 1037.3 hPa | 0 mm | - | 0 W/m² | - |
| 1777781329 | 11.11° C | 79% | 1037.3 hPa | 0 mm | - | 0 W/m² | - |
| 1777781026 | 11.11° C | 76% | 1037.3 hPa | 0 mm | - | 0 W/m² | - |
| 1777780723 | 11.11° C | 77% | 1037.3 hPa | 0 mm | - | 0 W/m² | - |
| 1777780420 | 11.11° C | 77% | 1037.2 hPa | 0 mm | - | 0 W/m² | - |
| 1777780117 | 11.67° C | 77% | 1037.3 hPa | 0 mm | - | 0 W/m² | - |
| 1777779815 | 11.67° C | 77% | 1037.4 hPa | 0 mm | - | 0 W/m² | - |
| 1777779512 | 11.67° C | 76% | 1037.2 hPa | 0 mm | - | 0 W/m² | - |
| 1777779209 | 11.67° C | 75% | 1037.2 hPa | 0 mm | - | 0 W/m² | - |
| 1777778907 | 11.67° C | 72% | 1037.3 hPa | 0 mm | - | 0 W/m² | - |
| 1777778606 | 11.67° C | 74% | 1037.4 hPa | 0 mm | - | 0 W/m² | - |
| 1777778303 | 12.22° C | 73% | 1037.2 hPa | 0 mm | - | 0 W/m² | - |
| 1777778001 | 12.22° C | 72% | 1037.4 hPa | 0 mm | - | 0 W/m² | - |
| 1777777696 | 12.22° C | 70% | 1037.3 hPa | 0 mm | - | 0 W/m² | - |
| 1777777393 | 12.22° C | 69% | 1037.2 hPa | 0 mm | - | 0 W/m² | - |
| 1777777090 | 12.22° C | 69% | 1037.3 hPa | 0 mm | - | 0 W/m² | - |
| 1777776788 | 12.22° C | 69% | 1037.1 hPa | 0 mm | - | 0 W/m² | - |
| 1777776484 | 12.22° C | 69% | 1037.2 hPa | 0 mm | - | 0 W/m² | - |
| 1777776181 | 12.22° C | 66% | 1037.1 hPa | 0 mm | - | 0 W/m² | - |
* Rain latest hour (hover to see other rain measurements)
** Current wind speed in m/s (hover to see current wind gust speed)